Date String (YYYY-MM-DD hh:mm:ss) UTC,Instrument flags,Ambient pressure (hPa),Sample flow (lpm),Bypass flow (lpm),Sample temperature (°C),Ambient temperature (°C),ASC tube jacket temperature (°C),LED temperature (°C),Box temperature (°C),Sample RH (%),Span deviation,Mass concentration (μg/m³),Mass concentration (μg/m³),Mass concentration (μg/m³)
DateTimeUTC,F1_M11,P_M11,Q1_M11,Q2_M11,T1_M11,T2_M11,T3_M11,T4_M11,T5_M11,U1_M11,ZSPAN_M11,X0_M11,X2_M11,X1_M11
2022-10-17 19:00:00,,0832.7,5.01,0.00,28.0,27.0,00.0,36.7,29.9,13.3,0000.0,0012.04,0005.93,0005.34
2022-10-17 19:01:00,,0832.6,4.98,0.00,28.0,27.0,00.0,36.7,29.9,13.1,0000.0,0012.78,0005.96,0005.32
2022-10-17 19:02:00,,0832.6,5.00,0.00,28.1,27.0,00.0,36.8,30.0,13.1,0000.0,0012.72,0005.96,0005.31
2022-10-17 19:03:00,,0832.7,5.00,0.00,28.1,27.0,00.0,36.8,30.0,13.3,0000.0,0012.30,0005.95,0005.31
2022-10-17 19:04:00,,0832.6,5.00,0.00,28.1,27.1,00.0,36.8,30.0,13.3,0000.0,0012.27,0005.94,0005.30
2022-10-17 19:05:00,,0832.6,4.99,0.00,28.1,27.1,00.0,36.8,30.0,13.1,0000.0,0012.86,0005.94,0005.30
2022-10-17 19:06:00,,0832.6,5.00,0.00,28.1,27.1,00.0,36.8,30.0,13.2,0000.0,0012.95,0005.96,0005.29
2022-10-17 19:07:00,,0832.6,5.00,0.00,28.1,27.1,00.0,36.8,30.1,13.1,0000.0,0012.75,0005.97,0005.28
2022-10-17 19:08:00,,0832.6,5.00,0.00,28.2,27.1,00.0,36.9,30.1,13.1,0000.0,0012.91,0005.94,0005.28
2022-10-17 19:09:00,,0832.6,4.99,0.00,28.2,27.1,00.0,36.9,30.1,13.1,0000.0,0013.19,0005.95,0005.29
2022-10-17 19:10:00,,0832.5,5.01,0.00,28.2,27.2,00.0,36.9,30.1,13.1,0000.0,0013.63,0006.00,0005.31
2022-10-17 19:11:00,,0832.6,5.00,0.00,28.2,27.2,00.0,36.9,30.1,13.2,0000.0,0013.39,0006.09,0005.35
2022-10-17 19:12:00,,0832.5,5.00,0.00,28.2,27.2,00.0,36.9,30.1,13.1,0000.0,0013.03,0006.12,0005.40
2022-10-17 19:13:00,,0832.5,5.01,0.00,28.3,27.2,00.0,37.0,30.2,13.0,0000.0,0013.25,0006.13,0005.45
2022-10-17 19:14:00,,0832.5,5.01,0.00,28.3,27.3,00.0,37.0,30.2,13.1,0000.7,0014.26,0006.18,0005.48
2022-10-17 19:15:00,,0832.4,5.00,0.00,28.3,27.3,00.0,37.0,30.2,13.1,0002.6,0015.15,0006.26,0005.53
2022-10-17 19:16:00,,0832.5,4.98,0.00,28.3,27.3,00.0,37.0,30.2,12.9,0002.4,0014.92,0006.27,0005.54
2022-10-17 19:17:00,,0832.4,5.01,0.00,28.3,27.3,00.0,37.0,30.2,12.9,0001.1,0015.68,0006.25,0005.54
2022-10-17 19:18:00,,0832.5,5.00,0.00,28.4,27.3,00.0,37.0,30.2,12.9,0000.0,0016.03,0006.23,0005.54
2022-10-17 19:19:00,,0832.4,5.00,0.00,28.4,27.3,00.0,37.1,30.3,12.9,0000.0,0016.35,0006.26,0005.55
2022-10-17 19:20:00,,0832.4,4.99,0.00,28.4,27.4,00.0,37.1,30.3,12.9,0000.0,0015.82,0006.29,0005.58
2022-10-17 19:21:00,,0832.3,5.00,0.00,28.4,27.4,00.0,37.1,30.3,13.0,0000.0,0015.66,0006.29,0005.61
2022-10-17 19:22:00,,0832.3,4.99,0.00,28.4,27.4,00.0,37.1,30.3,13.0,0000.0,0015.88,0006.26,0005.64
2022-10-17 19:23:00,,0832.3,5.00,0.00,28.4,27.4,00.0,37.1,30.3,12.9,0000.0,0015.66,0006.28,0005.68
2022-10-17 19:24:00,,0832.3,5.02,0.00,28.5,27.4,00.0,37.2,30.4,12.8,0000.0,0015.60,0006.33,0005.70
2022-10-17 19:25:00,,0832.4,5.00,0.00,28.5,27.4,00.0,37.2,30.4,12.8,0000.0,0015.54,0006.33,0005.72
2022-10-17 19:26:00,,0832.3,5.00,0.00,28.5,27.4,00.0,37.2,30.4,12.8,0000.0,0015.81,0006.32,0005.73
2022-10-17 19:27:00,,0832.4,5.00,0.00,28.5,27.5,00.0,37.2,30.4,12.8,0000.0,0015.55,0006.33,0005.75
2022-10-17 19:28:00,,0832.3,5.00,0.00,28.5,27.5,00.0,37.2,30.4,12.8,0000.0,0014.49,0006.37,0005.81
2022-10-17 19:29:00,,0832.3,5.00,0.00,28.5,27.5,00.0,37.2,30.4,12.7,0000.0,0014.51,0006.42,0005.84
2022-10-17 19:30:00,,0832.3,5.00,0.00,28.6,27.5,00.0,37.3,30.4,12.7,0000.0,0014.50,0006.45,0005.85
2022-10-17 19:31:00,,0832.2,5.00,0.00,28.6,27.5,00.0,37.3,30.5,12.7,0000.0,0014.24,0006.45,0005.87
2022-10-17 19:32:00,,0832.3,5.00,0.00,28.6,27.5,00.0,37.3,30.5,12.7,0000.0,0014.66,0006.50,0005.89
2022-10-17 19:33:00,,0832.3,5.01,0.00,28.6,27.6,00.0,37.3,30.5,12.7,0000.0,0014.03,0006.45,0005.88
2022-10-17 19:34:00,,0832.2,5.01,0.00,28.6,27.6,00.0,37.3,30.5,12.6,0000.0,0014.41,0006.43,0005.84
2022-10-17 19:35:00,,0832.2,4.98,0.00,28.6,27.6,00.0,37.4,30.5,12.7,0000.0,0014.59,0006.42,0005.82
2022-10-17 19:36:00,,0832.1,5.00,0.00,28.7,27.6,00.0,37.4,30.6,12.6,0000.0,0014.28,0006.42,0005.83
2022-10-17 19:37:00,,0832.1,5.00,0.00,28.7,27.7,00.0,37.4,30.6,12.7,0000.0,0012.92,0006.39,0005.83
2022-10-17 19:38:00,,0832.1,5.01,0.00,28.7,27.7,00.0,37.4,30.6,12.7,0000.0,0012.87,0006.38,0005.84
2022-10-17 19:39:00,,0832.1,5.00,0.00,28.7,27.7,00.0,37.4,30.6,12.6,0000.0,0013.37,0006.39,0005.82
2022-10-17 19:40:00,,0832.1,5.00,0.00,28.7,27.7,00.0,37.5,30.6,12.7,0000.0,0013.53,0006.38,0005.83
2022-10-17 19:41:00,,0832.1,5.00,0.00,28.7,27.7,00.0,37.5,30.6,12.7,0000.0,0013.15,0006.38,0005.83
2022-10-17 19:42:00,,0832.0,5.00,0.00,28.8,27.7,00.0,37.5,30.7,12.6,0000.0,0012.74,0006.38,0005.81
2022-10-17 19:43:00,,0832.1,5.00,0.00,28.8,27.7,00.0,37.5,30.7,12.6,0000.0,0012.31,0006.33,0005.79
2022-10-17 19:44:00,,0832.1,5.00,0.00,28.8,27.7,00.0,37.5,30.7,12.6,0000.0,0012.29,0006.38,0005.81
2022-10-17 19:45:00,,0832.1,5.00,0.00,28.8,27.7,00.0,37.5,30.7,12.7,0000.0,0011.81,0006.41,0005.84
2022-10-17 19:46:00,,0832.0,5.00,0.00,28.8,27.8,00.0,37.5,30.7,12.6,0000.0,0011.53,0006.41,0005.86
2022-10-17 19:47:00,,0832.1,5.00,0.00,28.8,27.8,00.0,37.6,30.7,12.6,0000.0,0010.97,0006.43,0005.89
2022-10-17 19:48:00,,0832.1,5.00,0.00,28.8,27.8,00.0,37.6,30.7,12.7,0001.8,0011.44,0006.51,0005.93
2022-10-17 19:49:00,,0832.0,5.00,0.00,28.9,27.8,00.0,37.6,30.7,12.6,0002.3,0013.04,0006.56,0005.96
2022-10-17 19:50:00,,0832.0,5.01,0.00,28.9,27.8,00.0,37.6,30.8,12.6,0000.8,0012.58,0006.60,0005.98
2022-10-17 19:51:00,,0832.0,5.00,0.00,28.9,27.9,00.0,37.6,30.8,12.6,0002.7,0011.67,0006.61,0006.02
2022-10-17 19:52:00,,0832.0,4.98,0.00,28.9,27.9,00.0,37.6,30.8,12.6,0002.4,0012.54,0006.67,0006.05
2022-10-17 19:53:00,,0831.9,5.00,0.00,28.9,27.9,00.0,37.6,30.8,12.6,0002.6,0013.04,0006.64,0006.06
2022-10-17 19:54:00,,0831.9,5.00,0.00,28.9,27.9,00.0,37.7,30.8,12.6,0002.4,0013.05,0006.61,0006.05
2022-10-17 19:55:00,,0831.9,5.01,0.00,29.0,27.9,00.0,37.7,30.8,12.5,0000.0,0012.97,0006.57,0006.01
2022-10-17 19:56:00,,0831.9,5.01,0.00,29.0,28.0,00.0,37.7,30.9,12.5,0000.0,0012.94,0006.54,0005.99
2022-10-17 19:57:00,,0831.9,4.99,0.00,29.0,28.0,00.0,37.7,30.9,12.5,0000.0,0013.37,0006.48,0005.94
2022-10-17 19:58:00,,0832.0,5.00,0.00,29.0,28.0,00.0,37.7,30.9,12.5,0000.0,0013.63,0006.41,0005.86
2022-10-17 19:59:00,,0832.0,5.00,0.00,29.0,28.0,00.0,37.8,30.9,12.5,0000.0,0013.43,0006.35,0005.79
